QPF
0.01 0.02 0.01 0.01 0.01 0.02 0.02 0.02 0.03 0.04 0.05 0.05 0.05 0.05 0.04 0.04 0.04 0.04 0.05 0.06 0.06 0.05 0.03 0.03 0.03 0.03 0.03 0.03 0.04 0.05 0.06 0.05 0.03 0.02 0.02 0.02 0.01 0.01 0.01 0.02 0.01 0.01 0.01 0.02
0.01 0.01 0.01 0.02 0.02 0.02 0.03 0.03 0.03 0.03 0.05 0.05 0.03 0.03 0.04 0.04 0.03 0.03 0.04 0.05 0.04 0.04 0.03 0.03 0.03 0.04 0.04 0.04 0.03 0.03 0.03 0.03 0.02 0.01 0.01 0.01 0.01 0.01 0.02 0.02 0.02 0.02 0.01 0.01
0.01 0.01 0.02 0.03 0.04 0.04 0.04 0.04 0.05 0.04 0.03 0.03 0.03 0.04 0.03 0.03 0.03 0.03 0.03 0.03 0.03 0.03 0.03 0.03 0.04 0.05 0.06 0.04 0.02 0.01 0.01 0.02 0.02 0.01 0.01 0.01 0.01 0.02 0.02 0.02 0.02 0.02 0.02 0.02
0.01 0.01 0.03 0.04 0.04 0.04 0.05 0.05 0.04 0.04 0.03 0.03 0.04 0.06 0.05 0.03 0.03 0.02 0.02 0.02 0.02 0.02 0.02 0.02 0.03 0.04 0.04 0.03 0.02 0.01 0.01 0.01 0.01 0.01 0.02 0.01 0.02 0.02 0.02 0.02 0.01 0.03 0.03 0.03
0.00 0.01 0.02 0.03 0.02 0.03 0.05 0.06 0.06 0.05 0.03 0.02 0.03 0.04 0.03 0.03 0.03 0.03 0.02 0.02 0.01 0.01 0.01 0.01 0.02 0.02 0.01 0.01 0.02 0.02 0.01 0.00 0.01 0.01 0.01 0.01 0.02 0.02 0.02 0.02 0.04 0.06 0.06 0.07
0.00 0.00 0.01 0.01 0.01 0.01 0.02 0.05 0.04 0.04 0.03 0.03 0.03 0.03 0.03 0.02 0.03 0.04 0.02 0.01 0.01 0.01 0.01 0.01 0.01 0.01 0.01 0.01 0.02 0.02 0.01 0.01 0.01 0.01 0.02 0.02 0.02 0.02 0.03 0.05 0.07 0.08 0.08 0.09
0.00 0.00 0.01 0.01 0.01 0.01 0.03 0.05 0.03 0.02 0.02 0.02 0.02 0.02 0.03 0.03 0.03 0.03 0.03 0.02 0.01 0.01 0.01 0.01 0.01 0.01 0.01 0.02 0.02 0.02 0.02 0.01 0.01 0.01 0.01 0.02 0.01 0.01 0.03 0.05 0.07 0.08 0.07 0.06
0.00 0.01 0.01 0.01 0.01 0.02 0.03 0.03 0.02 0.01 0.01 0.02 0.03 0.04 0.04 0.04 0.04 0.03 0.03 0.03 0.02 0.01 0.01 0.01 0.01 0.01 0.02 0.02 0.02 0.02 0.01 0.01 0.01 0.01 0.02 0.02 0.01 0.03 0.05 0.06 0.07 0.05 0.03 0.02
0.01 0.01 0.01 0.01 0.01 0.02 0.02 0.02 0.01 0.01 0.01 0.02 0.03 0.04 0.05 0.04 0.04 0.04 0.06 0.06 0.03 0.02 0.01 0.02 0.02 0.02 0.03 0.03 0.02 0.01 0.01 0.01 0.01 0.01 0.01 0.01 0.01 0.02 0.03 0.03 0.02 0.02 0.02 0.02
0.01 0.01 0.01 0.02 0.01 0.01 0.01 0.01 0.01 0.01 0.01 0.02 0.03 0.04 0.05 0.06 0.07 0.07 0.05 0.03 0.03 0.02 0.02 0.02 0.02 0.02 0.02 0.02 0.02 0.01 0.01 0.01 0.01 0.01 0.01 0.01 0.01 0.01 0.01 0.01 0.01 0.01 0.01 0.02
0.02 0.02 0.02 0.02 0.01 0.01 0.01 0.00 0.01 0.01 0.02 0.02 0.03 0.03 0.05 0.06 0.06 0.05 0.03 0.01 0.02 0.01 0.02 0.02 0.03 0.02 0.01 0.02 0.02 0.01 0.01 0.01 0.02 0.02 0.01 0.00 0.00 0.01 0.01 0.02 0.02 0.02 0.03 0.05
0.02 0.02 0.02 0.01 0.01 0.01 0.00 0.01 0.01 0.01 0.02 0.02 0.02 0.02 0.03 0.03 0.03 0.02 0.01 0.01 0.01 0.02 0.02 0.02 0.03 0.02 0.01 0.02 0.01 0.01 0.01 0.01 0.02 0.01 0.01 0.01 0.01 0.02 0.03 0.03 0.04 0.05 0.06 0.07
0.03 0.02 0.01 0.01 0.01 0.00 0.01 0.01 0.01 0.01 0.01 0.01 0.01 0.01 0.02 0.01 0.01 0.01 0.01 0.03 0.03 0.03 0.03 0.02 0.03 0.02 0.02 0.01 0.01 0.01 0.02 0.02 0.01 0.01 0.00 0.01 0.01 0.02 0.02 0.02 0.03 0.04 0.05 0.04
0.03 0.02 0.01 0.01 0.01 0.01 0.01 0.02 0.02 0.02 0.01 0.01 0.01 0.01 0.02 0.01 0.01 0.01 0.03 0.04 0.04 0.03 0.02 0.01 0.01 0.01 0.01 0.01 0.01 0.02 0.02 0.01 0.00 0.00 0.00 0.01 0.01 0.02 0.02 0.02 0.01 0.02 0.03 0.02
0.02 0.02 0.01 0.01 0.00 0.01 0.02 0.02 0.02 0.01 0.01 0.01 0.01 0.01 0.02 0.02 0.02 0.03 0.03 0.03 0.03 0.02 0.01 0.01 0.01 0.01 0.01 0.02 0.02 0.02 0.01 0.00 0.00 0.01 0.01 0.02 0.02 0.02 0.02 0.01 0.00 0.01 0.01 0.01
0.02 0.02 0.01 0.01 0.01 0.01 0.02 0.02 0.02 0.01 0.01 0.01 0.01 0.01 0.02 0.03 0.03 0.03 0.02 0.02 0.02 0.02 0.01 0.01 0.01 0.02 0.03 0.03 0.01 0.01 0.00 0.00 0.01 0.01 0.01 0.01 0.01 0.01 0.01 0.00 0.00 0.00 0.00 0.00
0.02 0.02 0.02 0.02 0.02 0.02 0.02 0.01 0.01 0.01 0.01 0.01 0.01 0.01 0.01 0.01 0.01 0.02 0.02 0.02 0.03 0.02 0.02 0.02 0.02 0.02 0.03 0.02 0.01 0.00 0.00 0.01 0.01 0.01 0.01 0.01 0.01 0.01 0.00 0.00 0.00 0.00 0.00 0.01
0.01 0.02 0.02 0.02 0.02 0.01 0.01 0.01 0.01 0.01 0.01 0.00 0.00 0.00 0.00 0.01 0.01 0.01 0.01 0.01 0.01 0.02 0.02 0.02 0.01 0.01 0.01 0.00 0.00 0.00 0.00 0.01 0.00 0.00 0.00 0.00 0.00 0.00 0.00 0.00 0.01 0.01 0.01 0.00
0.02 0.02 0.02 0.02 0.01 0.01 0.01 0.01 0.01 0.01 0.00 0.00 0.00 0.00 0.01 0.01 0.01 0.01 0.01 0.01 0.01 0.02 0.02 0.01 0.01 0.00 0.00 0.00 0.00 0.00 0.00 0.00 0.00 0.00 0.00 0.00 0.00 0.00 0.00 0.01 0.01 0.01 0.00 0.00
0.03 0.02 0.02 0.02 0.02 0.01 0.01 0.01 0.01 0.00 0.00 0.00 0.00 0.01 0.01 0.01 0.01 0.01 0.00 0.00 0.00 0.01 0.01 0.01 0.00 0.00 0.00 0.00 0.00 0.00 0.00 0.00 0.00 0.00 0.00 0.00 0.00 0.00 0.00 0.01 0.01 0.00 0.00 0.00
0.02 0.01 0.01 0.01 0.01 0.01 0.01 0.01 0.00 0.00 0.00 0.00 0.00 0.01 0.01 0.01 0.01 0.01 0.01 0.00 0.01 0.01 0.01 0.01 0.01 0.00 0.00 0.00 0.00 0.00 0.00 0.00 0.00 0.00 0.00 0.00 0.00 0.01 0.01 0.01 0.00 0.00 0.00 0.00
0.01 0.01 0.01 0.01 0.01 0.00 0.00 0.00 0.00 0.00 0.00 0.00 0.01 0.01 0.02 0.02 0.01 0.01 0.01 0.02 0.01 0.01 0.00 0.00 0.00 0.00 0.00 0.00 0.00 0.00 0.00 0.00 0.00 0.00 0.00 0.01 0.01 0.01 0.00 0.00 0.00 0.00 0.00 0.00
0.01 0.01 0.01 0.00 0.00 0.00 0.00 0.00 0.00 0.00 0.00 0.00 0.01 0.01 0.02 0.02 0.02 0.02 0.02 0.01 0.01 0.00 0.00 0.00 0.00 0.00 0.00 0.00 0.00 0.00 0.00 0.00 0.00 0.00 0.01 0.00 0.01 0.01 0.00 0.00 0.00 0.00 0.00 0.00
0.01 0.00 0.00 0.01 0.01 0.00 0.00 0.00 0.00 0.00 0.00 0.00 0.01 0.01 0.02 0.02 0.02 0.02 0.01 0.01 0.01 0.00 0.00 0.00 0.00 0.00 0.00 0.00 0.00 0.00 0.00 0.00 0.01 0.00 0.00 0.00 0.00 0.00 0.00 0.00 0.00 0.00 0.00 0.00
0.01 0.00 0.00 0.01 0.00 0.00 0.00 0.00 0.00 0.00 0.00 0.00 0.01 0.02 0.01 0.01 0.01 0.01 0.01 0.01 0.01 0.01 0.01 0.01 0.00 0.00 0.00 0.00 0.00 0.00 0.01 0.01 0.01 0.01 0.00 0.00 0.00 0.00 0.00 0.00 0.00 0.00 0.00 0.00
0.01 0.01 0.01 0.00 0.00 0.00 0.00 0.00 0.00 0.01 0.01 0.01 0.01 0.01 0.01 0.00 0.00 0.01 0.00 0.00 0.01 0.01 0.01 0.01 0.00 0.00 0.00 0.00 0.01 0.01 0.01 0.01 0.00 0.00 0.00 0.00 0.00 0.00 0.00 0.00 0.00 0.00 0.00 0.00
0.01 0.01 0.01 0.01 0.00 0.01 0.00 0.00 0.01 0.01 0.01 0.01 0.01 0.01 0.00 0.00 0.00 0.00 0.00 0.00 0.00 0.01 0.01 0.01 0.01 0.01 0.01 0.01 0.02 0.01 0.01 0.00 0.00 0.00 0.00 0.00 0.00 0.00 0.00 0.00 0.00 0.00 0.00 0.00
MSLP
1017.90 1017.58 1017.26 1016.95 1016.61 1016.21 1015.72 1015.10 1014.32 1013.40 1012.36 1011.26 1010.16 1009.15 1008.29 1007.62 1007.19 1006.98 1006.98 1007.15 1007.43 1007.78 1008.14 1008.50 1008.82 1009.11 1009.37 1009.61 1009.84 1010.05 1010.26 1010.45 1010.62 1010.77 1010.88 1010.98 1011.04 1011.08 1011.10 1011.11 1011.10 1011.08 1011.02 1010.93
1018.16 1017.79 1017.40 1016.96 1016.48 1015.94 1015.30 1014.55 1013.68 1012.72 1011.68 1010.64 1009.64 1008.76 1008.04 1007.53 1007.23 1007.15 1007.25 1007.50 1007.83 1008.22 1008.60 1008.97 1009.30 1009.59 1009.84 1010.06 1010.27 1010.46 1010.63 1010.78 1010.90 1011.00 1011.06 1011.08 1011.08 1011.05 1011.01 1010.95 1010.88 1010.80 1010.70 1010.57
1018.47 1018.06 1017.60 1017.08 1016.50 1015.84 1015.09 1014.25 1013.33 1012.34 1011.33 1010.34 1009.44 1008.67 1008.08 1007.68 1007.48 1007.48 1007.64 1007.92 1008.28 1008.66 1009.04 1009.38 1009.70 1009.96 1010.19 1010.39 1010.58 1010.74 1010.88 1010.99 1011.07 1011.12 1011.12 1011.09 1011.03 1010.94 1010.84 1010.72 1010.60 1010.48 1010.35 1010.20
1018.81 1018.38 1017.88 1017.31 1016.67 1015.95 1015.14 1014.27 1013.32 1012.35 1011.38 1010.45 1009.62 1008.94 1008.43 1008.11 1007.97 1008.00 1008.18 1008.45 1008.78 1009.12 1009.46 1009.76 1010.04 1010.27 1010.47 1010.64 1010.80 1010.93 1011.04 1011.12 1011.16 1011.16 1011.11 1011.03 1010.92 1010.78 1010.63 1010.48 1010.33 1010.18 1010.04 1009.89
1019.15 1018.70 1018.18 1017.60 1016.94 1016.22 1015.41 1014.54 1013.63 1012.69 1011.76 1010.90 1010.14 1009.52 1009.06 1008.77 1008.64 1008.67 1008.81 1009.04 1009.32 1009.60 1009.88 1010.14 1010.36 1010.56 1010.72 1010.86 1010.99 1011.09 1011.16 1011.20 1011.21 1011.17 1011.08 1010.96 1010.80 1010.63 1010.46 1010.28 1010.12 1009.98 1009.84 1009.71
1019.44 1018.97 1018.46 1017.89 1017.26 1016.56 1015.80 1014.98 1014.11 1013.24 1012.38 1011.57 1010.86 1010.28 1009.84 1009.56 1009.42 1009.40 1009.50 1009.67 1009.88 1010.10 1010.32 1010.52 1010.70 1010.85 1010.98 1011.10 1011.19 1011.26 1011.30 1011.30 1011.26 1011.19 1011.07 1010.92 1010.74 1010.56 1010.38 1010.21 1010.06 1009.93 1009.81 1009.71
1019.64 1019.16 1018.65 1018.10 1017.51 1016.87 1016.17 1015.42 1014.63 1013.82 1013.04 1012.29 1011.63 1011.08 1010.65 1010.35 1010.18 1010.13 1010.18 1010.28 1010.43 1010.59 1010.76 1010.91 1011.05 1011.17 1011.27 1011.36 1011.42 1011.45 1011.46 1011.42 1011.36 1011.25 1011.12 1010.96 1010.78 1010.61 1010.44 1010.30 1010.18 1010.08 1010.00 1009.93
1019.72 1019.20 1018.69 1018.17 1017.62 1017.04 1016.41 1015.74 1015.03 1014.31 1013.59 1012.91 1012.29 1011.77 1011.35 1011.05 1010.86 1010.78 1010.78 1010.84 1010.94 1011.06 1011.19 1011.31 1011.42 1011.51 1011.58 1011.63 1011.66 1011.66 1011.63 1011.57 1011.48 1011.36 1011.22 1011.08 1010.92 1010.79 1010.67 1010.57 1010.50 1010.45 1010.41 1010.37
1019.63 1019.09 1018.56 1018.05 1017.53 1017.00 1016.44 1015.84 1015.21 1014.56 1013.92 1013.30 1012.74 1012.26 1011.87 1011.58 1011.39 1011.30 1011.28 1011.32 1011.39 1011.49 1011.60 1011.69 1011.77 1011.84 1011.88 1011.89 1011.88 1011.85 1011.80 1011.71 1011.61 1011.50 1011.38 1011.27 1011.17 1011.09 1011.03 1011.00 1010.99 1010.99 1011.00 1010.98
1019.38 1018.80 1018.25 1017.73 1017.23 1016.74 1016.22 1015.68 1015.13 1014.56 1013.98 1013.44 1012.94 1012.51 1012.17 1011.92 1011.75 1011.67 1011.66 1011.70 1011.77 1011.86 1011.95 1012.02 1012.08 1012.12 1012.12 1012.10 1012.06 1012.00 1011.92 1011.83 1011.73 1011.64 1011.56 1011.50 1011.47 1011.47 1011.49 1011.54 1011.60 1011.66 1011.70 1011.71
1018.98 1018.35 1017.78 1017.25 1016.76 1016.28 1015.80 1015.32 1014.82 1014.31 1013.82 1013.35 1012.92 1012.56 1012.28 1012.08 1011.97 1011.92 1011.94 1012.00 1012.07 1012.16 1012.23 1012.28 1012.31 1012.31 1012.28 1012.23 1012.16 1012.06 1011.97 1011.89 1011.81 1011.76 1011.74 1011.75 1011.80 1011.88 1011.99 1012.12 1012.24 1012.36 1012.43 1012.46
1018.43 1017.78 1017.20 1016.66 1016.17 1015.71 1015.25 1014.80 1014.36 1013.91 1013.49 1013.10 1012.76 1012.48 1012.28 1012.15 1012.10 1012.10 1012.15 1012.22 1012.31 1012.38 1012.44 1012.46 1012.46 1012.42 1012.34 1012.26 1012.16 1012.05 1011.96 1011.90 1011.86 1011.86 1011.90 1012.00 1012.13 1012.30 1012.49 1012.68 1012.86 1013.02 1013.12 1013.15
1017.79 1017.15 1016.57 1016.04 1015.56 1015.11 1014.68 1014.26 1013.85 1013.46 1013.11 1012.80 1012.54 1012.35 1012.23 1012.18 1012.19 1012.24 1012.32 1012.41 1012.49 1012.55 1012.58 1012.56 1012.52 1012.43 1012.32 1012.21 1012.09 1011.99 1011.92 1011.88 1011.89 1011.96 1012.08 1012.24 1012.45 1012.70 1012.94 1013.19 1013.41 1013.58 1013.70 1013.74
1017.10 1016.50 1015.95 1015.45 1014.99 1014.56 1014.14 1013.76 1013.39 1013.06 1012.77 1012.53 1012.35 1012.24 1012.20 1012.22 1012.28 1012.37 1012.47 1012.56 1012.63 1012.66 1012.65 1012.59 1012.50 1012.38 1012.25 1012.12 1012.00 1011.92 1011.88 1011.89 1011.96 1012.09 1012.28 1012.51 1012.78 1013.07 1013.36 1013.63 1013.87 1014.05 1014.16 1014.20
1016.40 1015.87 1015.38 1014.93 1014.50 1014.10 1013.71 1013.36 1013.03 1012.74 1012.50 1012.33 1012.23 1012.19 1012.21 1012.28 1012.39 1012.50 1012.61 1012.69 1012.73 1012.72 1012.67 1012.58 1012.45 1012.30 1012.16 1012.04 1011.94 1011.90 1011.90 1011.98 1012.11 1012.30 1012.54 1012.82 1013.13 1013.44 1013.75 1014.02 1014.25 1014.42 1014.53 1014.56
1015.72 1015.29 1014.88 1014.49 1014.11 1013.74 1013.38 1013.05 1012.76 1012.51 1012.32 1012.20 1012.16 1012.18 1012.25 1012.36 1012.49 1012.62 1012.72 1012.78 1012.80 1012.75 1012.66 1012.54 1012.39 1012.24 1012.10 1012.00 1011.95 1011.96 1012.03 1012.16 1012.36 1012.61 1012.90 1013.20 1013.52 1013.84 1014.12 1014.38 1014.58 1014.74 1014.83 1014.86
1015.10 1014.77 1014.45 1014.12 1013.78 1013.44 1013.12 1012.81 1012.54 1012.33 1012.18 1012.10 1012.10 1012.17 1012.28 1012.42 1012.57 1012.70 1012.80 1012.84 1012.82 1012.75 1012.64 1012.49 1012.34 1012.20 1012.10 1012.04 1012.05 1012.13 1012.27 1012.47 1012.72 1013.02 1013.33 1013.65 1013.96 1014.24 1014.50 1014.72 1014.89 1015.02 1015.09 1015.12
1014.54 1014.32 1014.07 1013.80 1013.49 1013.18 1012.86 1012.57 1012.32 1012.13 1012.01 1011.98 1012.02 1012.12 1012.26 1012.43 1012.59 1012.72 1012.82 1012.84 1012.81 1012.73 1012.61 1012.47 1012.33 1012.23 1012.17 1012.18 1012.25 1012.40 1012.61 1012.87 1013.17 1013.49 1013.82 1014.13 1014.41 1014.67 1014.88 1015.05 1015.19 1015.29 1015.36 1015.40
1014.07 1013.92 1013.72 1013.48 1013.19 1012.88 1012.57 1012.28 1012.03 1011.86 1011.76 1011.76 1011.83 1011.97 1012.15 1012.35 1012.53 1012.68 1012.78 1012.81 1012.78 1012.70 1012.60 1012.48 1012.38 1012.32 1012.32 1012.39 1012.53 1012.74 1013.01 1013.32 1013.65 1013.99 1014.31 1014.60 1014.85 1015.07 1015.24 1015.38 1015.48 1015.57 1015.64 1015.69
1013.68 1013.58 1013.40 1013.16 1012.86 1012.53 1012.20 1011.90 1011.65 1011.49 1011.42 1011.44 1011.55 1011.72 1011.94 1012.18 1012.40 1012.57 1012.69 1012.75 1012.74 1012.69 1012.62 1012.54 1012.48 1012.48 1012.53 1012.66 1012.85 1013.11 1013.42 1013.76 1014.11 1014.44 1014.75 1015.02 1015.24 1015.42 1015.56 1015.67 1015.76 1015.84 1015.92 1016.01
1013.40 1013.30 1013.11 1012.83 1012.50 1012.13 1011.77 1011.44 1011.19 1011.03 1010.97 1011.02 1011.17 1011.40 1011.66 1011.94 1012.20 1012.42 1012.59 1012.68 1012.72 1012.71 1012.68 1012.65 1012.64 1012.68 1012.78 1012.95 1013.19 1013.48 1013.81 1014.16 1014.50 1014.82 1015.11 1015.35 1015.55 1015.70 1015.82 1015.92 1016.02 1016.11 1016.22 1016.34
1013.23 1013.10 1012.86 1012.52 1012.13 1011.71 1011.30 1010.95 1010.68 1010.52 1010.49 1010.57 1010.76 1011.03 1011.34 1011.68 1011.99 1012.26 1012.48 1012.63 1012.72 1012.76 1012.78 1012.80 1012.84 1012.92 1013.06 1013.26 1013.51 1013.81 1014.14 1014.48 1014.80 1015.11 1015.37 1015.59 1015.77 1015.91 1016.03 1016.14 1016.25 1016.37 1016.51 1016.67
1013.16 1012.97 1012.66 1012.26 1011.79 1011.32 1010.86 1010.48 1010.20 1010.04 1010.02 1010.13 1010.35 1010.66 1011.03 1011.42 1011.79 1012.12 1012.39 1012.60 1012.74 1012.84 1012.92 1012.98 1013.06 1013.18 1013.34 1013.54 1013.80 1014.09 1014.41 1014.72 1015.03 1015.31 1015.56 1015.76 1015.93 1016.08 1016.21 1016.34 1016.48 1016.63 1016.80 1017.00
1013.18 1012.92 1012.53 1012.05 1011.52 1010.99 1010.50 1010.09 1009.79 1009.64 1009.63 1009.76 1010.01 1010.36 1010.76 1011.18 1011.60 1011.98 1012.31 1012.58 1012.78 1012.93 1013.05 1013.16 1013.28 1013.42 1013.60 1013.81 1014.06 1014.34 1014.62 1014.92 1015.20 1015.46 1015.69 1015.89 1016.06 1016.22 1016.38 1016.54 1016.70 1016.90 1017.10 1017.33
1013.26 1012.92 1012.46 1011.92 1011.34 1010.77 1010.25 1009.82 1009.52 1009.36 1009.35 1009.49 1009.76 1010.12 1010.54 1010.99 1011.44 1011.86 1012.22 1012.54 1012.78 1012.99 1013.16 1013.32 1013.47 1013.64 1013.82 1014.04 1014.28 1014.54 1014.81 1015.08 1015.34 1015.58 1015.81 1016.01 1016.20 1016.38 1016.57 1016.76 1016.96 1017.18 1017.42 1017.65
1013.32 1012.93 1012.43 1011.85 1011.24 1010.66 1010.12 1009.69 1009.38 1009.22 1009.21 1009.34 1009.60 1009.95 1010.37 1010.82 1011.28 1011.71 1012.10 1012.44 1012.74 1012.98 1013.20 1013.39 1013.58 1013.78 1013.98 1014.21 1014.45 1014.70 1014.96 1015.22 1015.47 1015.71 1015.94 1016.15 1016.36 1016.57 1016.79 1017.01 1017.24 1017.49 1017.74 1017.99
1013.32 1012.90 1012.38 1011.80 1011.20 1010.62 1010.10 1009.68 1009.37 1009.20 1009.18 1009.28 1009.52 1009.83 1010.22 1010.64 1011.08 1011.50 1011.90 1012.26 1012.58 1012.87 1013.12 1013.36 1013.59 1013.82 1014.06 1014.30 1014.55 1014.81 1015.07 1015.33 1015.58 1015.83 1016.07 1016.31 1016.54 1016.78 1017.03 1017.28 1017.54 1017.80 1018.06 1018.30
Thickness
5658 5662 5661 5659 5658 5657 5650 5645 5639 5644 5646 5651 5654 5655 5656 5657 5658 5660 5660 5661 5661 5660 5658 5658 5657 5656 5655 5653 5650 5647 5644 5640 5637 5635 5632 5630 5627 5624 5622 5619 5617 5615 5613 5611
5655 5661 5660 5655 5656 5655 5653 5650 5646 5647 5647 5653 5654 5654 5655 5654 5655 5656 5656 5658 5658 5657 5656 5655 5654 5653 5651 5649 5646 5644 5641 5638 5636 5633 5630 5627 5624 5621 5618 5616 5614 5612 5610 5608
5643 5652 5655 5645 5650 5650 5649 5649 5646 5641 5644 5649 5650 5651 5651 5652 5653 5653 5653 5654 5655 5655 5654 5653 5651 5649 5647 5646 5644 5641 5639 5636 5633 5631 5628 5625 5622 5619 5616 5613 5611 5609 5607 5605
5636 5643 5636 5645 5657 5655 5649 5647 5647 5645 5646 5648 5648 5649 5650 5651 5650 5650 5651 5652 5653 5652 5652 5651 5650 5648 5646 5644 5642 5639 5636 5634 5632 5629 5626 5623 5620 5617 5614 5611 5609 5606 5604 5602
5628 5630 5635 5647 5652 5650 5644 5642 5646 5643 5643 5644 5646 5647 5648 5652 5651 5650 5650 5650 5650 5650 5650 5649 5647 5646 5644 5642 5640 5637 5635 5633 5631 5628 5625 5622 5618 5616 5612 5609 5607 5604 5602 5599
5628 5628 5626 5640 5653 5655 5647 5638 5645 5642 5640 5640 5640 5635 5641 5650 5649 5649 5649 5649 5649 5649 5648 5646 5645 5644 5642 5640 5638 5636 5634 5632 5630 5627 5624 5620 5617 5613 5610 5607 5605 5602 5599 5596
5624 5623 5630 5645 5650 5650 5633 5631 5642 5641 5639 5637 5634 5635 5640 5645 5645 5646 5646 5647 5648 5646 5645 5644 5643 5641 5639 5638 5637 5636 5634 5631 5629 5626 5622 5619 5615 5612 5608 5605 5602 5599 5597 5593
5619 5619 5626 5646 5644 5636 5633 5638 5639 5638 5637 5636 5635 5637 5639 5641 5642 5642 5643 5644 5644 5643 5642 5641 5641 5639 5637 5636 5636 5635 5632 5629 5627 5624 5621 5617 5613 5609 5606 5603 5599 5596 5593 5589
5624 5627 5638 5640 5640 5641 5638 5636 5637 5637 5637 5636 5635 5635 5637 5638 5639 5639 5640 5640 5641 5640 5639 5639 5638 5637 5635 5635 5634 5632 5630 5627 5624 5621 5618 5614 5610 5607 5603 5599 5596 5592 5588 5584
5626 5633 5638 5639 5640 5640 5639 5637 5638 5638 5637 5636 5634 5634 5635 5635 5636 5636 5637 5637 5638 5637 5637 5636 5636 5636 5635 5634 5632 5629 5626 5623 5621 5618 5615 5612 5608 5604 5600 5597 5593 5589 5585 5580
5625 5631 5635 5638 5638 5638 5637 5638 5637 5638 5637 5636 5635 5634 5634 5633 5633 5634 5635 5635 5635 5635 5635 5635 5635 5634 5634 5632 5630 5626 5623 5621 5618 5615 5611 5608 5604 5600 5597 5594 5589 5585 5581 5576
5624 5631 5628 5632 5637 5637 5635 5635 5635 5635 5635 5635 5634 5633 5632 5631 5632 5632 5633 5633 5633 5634 5634 5634 5634 5633 5632 5630 5628 5624 5621 5618 5615 5612 5609 5605 5601 5597 5594 5590 5587 5583 5578 5572
5631 5633 5631 5634 5635 5635 5633 5634 5635 5635 5634 5633 5633 5632 5631 5630 5631 5631 5631 5632 5632 5633 5633 5633 5632 5631 5630 5628 5626 5623 5620 5617 5614 5610 5607 5603 5599 5595 5591 5587 5584 5580 5574 5569
5633 5631 5630 5632 5632 5633 5632 5633 5633 5633 5633 5632 5631 5631 5630 5630 5630 5630 5631 5632 5633 5633 5632 5631 5630 5629 5628 5627 5625 5622 5619 5616 5612 5609 5605 5601 5597 5593 5589 5584 5580 5575 5570 5565
5632 5631 5629 5631 5630 5630 5630 5630 5630 5629 5630 5630 5630 5629 5629 5628 5629 5630 5631 5632 5632 5631 5630 5629 5628 5627 5627 5626 5623 5620 5617 5614 5611 5608 5604 5600 5595 5591 5587 5582 5577 5571 5567 5562
5629 5629 5628 5627 5627 5627 5627 5627 5626 5626 5627 5628 5628 5628 5628 5629 5629 5630 5631 5631 5630 5629 5629 5628 5627 5627 5626 5625 5622 5619 5616 5614 5610 5606 5603 5598 5594 5590 5585 5580 5575 5569 5564 5558
5623 5622 5623 5623 5624 5624 5625 5625 5625 5625 5626 5626 5627 5628 5628 5628 5628 5628 5629 5629 5629 5628 5628 5627 5627 5627 5625 5623 5621 5618 5615 5613 5610 5606 5602 5598 5593 5589 5584 5579 5573 5567 5561 5555
5624 5623 5623 5623 5623 5622 5624 5624 5625 5625 5625 5627 5627 5627 5627 5626 5626 5627 5627 5627 5627 5627 5627 5627 5627 5626 5624 5622 5620 5617 5615 5612 5608 5605 5601 5597 5592 5588 5583 5578 5572 5566 5560 5554
5622 5622 5622 5623 5623 5622 5622 5623 5623 5624 5625 5626 5626 5626 5626 5626 5626 5625 5625 5625 5625 5625 5626 5627 5626 5625 5623 5621 5619 5616 5614 5611 5607 5604 5600 5596 5592 5587 5582 5577 5571 5565 5559 5553
5618 5620 5621 5622 5623 5622 5621 5622 5622 5623 5624 5624 5624 5625 5624 5625 5625 5624 5623 5623 5624 5625 5626 5626 5625 5624 5622 5620 5618 5615 5613 5610 5606 5603 5599 5595 5591 5586 5581 5576 5570 5564 5558 5551
5614 5615 5617 5618 5619 5620 5620 5620 5620 5621 5622 5622 5622 5623 5623 5624 5623 5622 5622 5622 5624 5625 5625 5625 5624 5622 5621 5619 5617 5614 5611 5608 5605 5602 5598 5594 5590 5585 5580 5575 5570 5564 5557 5551
5608 5610 5612 5614 5615 5616 5617 5618 5618 5619 5619 5620 5622 5622 5622 5621 5621 5621 5621 5622 5623 5623 5623 5623 5622 5621 5620 5617 5615 5613 5611 5608 5605 5601 5597 5593 5589 5585 5580 5575 5569 5563 5556 5550
5603 5605 5608 5610 5611 5612 5614 5616 5617 5617 5618 5619 5620 5620 5620 5620 5621 5621 5621 5623 5623 5622 5622 5622 5621 5620 5618 5616 5615 5613 5610 5607 5604 5601 5597 5593 5589 5584 5580 5574 5569 5563 5556 5550
5598 5601 5603 5605 5607 5608 5610 5612 5614 5616 5617 5618 5620 5621 5621 5620 5621 5622 5623 5623 5622 5622 5622 5621 5620 5619 5617 5615 5614 5612 5610 5607 5604 5600 5597 5593 5589 5584 5579 5574 5568 5563 5556 5550
5594 5596 5599 5600 5602 5605 5607 5608 5610 5613 5615 5616 5618 5620 5620 5621 5621 5622 5622 5622 5622 5621 5621 5620 5619 5617 5616 5615 5613 5611 5609 5607 5604 5601 5597 5593 5589 5584 5579 5574 5569 5563 5557 5550
5589 5591 5593 5596 5598 5600 5603 5605 5606 5609 5611 5613 5616 5618 5619 5620 5621 5621 5621 5621 5621 5620 5619 5619 5618 5617 5616 5614 5613 5611 5609 5607 5604 5601 5598 5593 5589 5584 5579 5574 5569 5563 5557 5551
5584 5586 5588 5591 5595 5598 5600 5602 5605 5607 5610 5612 5613 5616 5618 5619 5620 5620 5620 5620 5619 5619 5618 5618 5617 5617 5616 5614 5613 5611 5610 5607 5604 5601 5597 5593 5589 5585 5580 5575 5570 5564 5558 5552